Location: Olomouc
(49.5830°N, 17.2500°E)
Time: 02:33:15
(UTC+01:00)

ISS - Pass Details

Date: 01 October 2020
Orbit: 417 x 420 km, 51.6° (Epoch: 25 October)

Event Time Altitude Azimuth Distance (km) Brightness Sun altitude
Rises 21:06:57 0° 287° (WNW) 2,370 1.4 -25.7°
Reaches altitude 10° 21:09:14 10° 275° (W) 1,503 -0.1 -26.0°
Enters shadow 21:10:43 20° 255° (WSW) 1,049 -1.3 -26.3°
